Regional Weather Roundup
Issued by NWS

Home | Current Version | Previous Version | Graphics & Text | Print | Product List | Glossary On
Versions: 1 2 3 4 5 6 7 8 9 10 11 12 13 14 15 16 17 18 19 20 21 22 23 24 25 26 27 28 29 30 31 32 33 34 35 36 37 38 39 40 41 42 43 44 45 46 47 48 49 50
358
ASUS45 KCYS 270410
RWRWY

WYOMING REGIONAL WEATHER ROUNDUP
NATIONAL WEATHER SERVICE CHEYENNE WY
1000 PM MDT THU APR 26 2018

NOTE:  "FAIR" INDICATES FEW OR NO CLOUDS BELOW 12,000 FEET
WITH NO SIGNIFICANT WEATHER AND/OR OBSTRUCTIONS TO VISIBILITY.

WYZ001-270500-
YELLOWSTONE NATIONAL PARK

CITY           SKY/WX    TMP DP  RH WIND       PRES   REMARKS
LK YELLOWSTONE   N/A     29  22  75 CALM      30.30R
W YELLOWSTONE  NOT AVBL

$$
WYZ002>013-054>058-071-098>099-270500-
NORTHERN WYOMING

CITY           SKY/WX    TMP DP  RH WIND       PRES   REMARKS
JACKSON        FAIR      40  22  48 N5        30.22R
CODY           FAIR      49  24  37 CALM      30.19R
GREYBULL       FAIR      51  33  50 E7        30.15S
WORLAND        FAIR      46  25  43 SE10      30.16S
SHERIDAN       FAIR      44  33  65 CALM      30.14R
BUFFALO        FAIR      48  29  47 W5        30.18S
GILLETTE       FAIR      35  31  85 SW5       30.15S WCI  31
HULETT         FAIR      46  32  57 SW7       30.15S
NEWCASTLE      FAIR      45  30  57 N7        30.16S

$$
WYZ014>020-022>026-101>103-270500-
CENTRAL WYOMING

CITY           SKY/WX    TMP DP  RH WIND       PRES   REMARKS
BIG PINEY      FAIR      42  11  28 NW7       30.25R
PINEDALE       FAIR      43  21  42 NE7       30.26R
DUBOIS         FAIR      41  23  48 SW7       30.26S
LANDER         FAIR      48  22  35 SW6       30.19S
RIVERTON       FAIR      49  21  33 CALM      30.21R
CASPER         FAIR      36  25  64 W3        30.20S
DOUGLAS        FAIR      41  28  60 CALM      30.20S

$$
WYZ021-027>030-104>119-270500-
SOUTHERN WYOMING

CITY           SKY/WX    TMP DP  RH WIND       PRES   REMARKS
EVANSTON       FAIR      51  15  23 E9        30.22R
KEMMERER       FAIR      50  12  22 SE7       30.25S
FORT BRIDGER   FAIR      48  10  21 SE8       30.27R
ROCK SPRINGS   FAIR      49  12  22 SE12      30.24R
DIXON          FAIR      44  19  36 E3        30.29R
RAWLINS        FAIR      43  20  39 SW3       30.27R
SARATOGA       FAIR      36  14  41 S5        30.28S WCI  32
LARAMIE        FAIR      37  19  48 SE5       30.28R WCI  33
CHEYENNE       FAIR      43  29  57 NW3       30.27R
TORRINGTON     FAIR      49  31  49 W3        30.18R
PINE BLUFFS    FAIR      32  27  80 W5        30.25R WCI  27

$$




USA.gov is the U.S. government's official web portal to all federal, state and local government web resources and services.